This demonstration page uses our WeatherBlox Daily Observations layout. Learn more.

Hourly Observations for March 11, 2019

Temp ( °F °C ) Dew Point ( °F °C ) Humidity (%) Winds ( mph kmh ) Pressure ( in mb ) Visibility ( mi km ) Precip ( " mm )
12:15 am 00:15 Clear 29 -1.7 24 -4.6 81 81 SE 7 11 30.36 1028 10 16.09344 0 0
12:35 am 00:35 Clear 29 -1.7 24 -4.5 81 81 SE 6 9 30.36 1028 10 16.09344 0 0
12:55 am 00:55 Clear 28 -2.5 23 -5 83 83 ESE 5 7 30.36 1028 10 16.09344 0 0
1:15 am 01:15 Clear 28 -2.3 24 -4.6 84 84 SE 7 11 30.36 1028 10 16.09344 0 0
1:35 am 01:35 Clear 27 -2.9 23 -5.2 84 84 ESE 5 7 30.36 1028 10 16.09344 0 0
1:55 am 01:55 Clear 27 -3 23 -5 86 86 SE 5 7 30.36 1028 10 16.09344 0 0
2:15 am 02:15 Clear 27 -3 23 -5.1 86 86 SE 6 9 30.36 1028 10 16.09344 0 0
2:35 am 02:35 Clear 26 -3.2 23 -5.1 87 87 SSE 6 9 30.36 1028 10 16.09344 0 0
2:55 am 02:55 Clear 26 -3.1 23 -5 87 87 SSE 5 7 30.36 1028 10 16.09344 0 0
3:15 am 03:15 Clear 26 -3.2 23 -5.1 87 87 S 8 13 30.36 1028 10 16.09344 0 0
3:35 am 03:35 Clear 26 -3.2 23 -5.1 87 87 S 3 6 30.36 1028 10 16.09344 0 0
3:55 am 03:55 Clear 27 -2.9 24 -4.6 88 88 Calm 30.36 1028 10 16.09344 0 0
4:15 am 04:15 Clear 28 -2.5 24 -4.5 86 86 ESE 3 6 30.36 1028 10 16.09344 0 0
4:35 am 04:35 Clear 26 -3.3 23 -5.1 88 88 Calm 30.39 1029 10 16.09344 0 0
4:55 am 04:55 Clear 22 -5.4 19 -7.2 87 87 Calm 30.39 1029 10 16.09344 0 0
5:15 am 05:15 Clear 21 -6 19 -7.3 91 91 Calm 30.45 1031 10 16.09344 0 0
5:35 am 05:35 Clear 21 -6.2 19 -7.5 91 91 NE 3 6 30.45 1031 10 16.09344 0 0
5:55 am 05:55 Clear 21 -6 19 -7.1 92 92 Calm 30.45 1031 10 16.09344 0 0
6:15 am 06:15 Clear 21 -6 19 -7.1 92 92 ENE 5 7 30.45 1031 10 16.09344 0 0
6:35 am 06:35 Clear 22 -5.8 20 -6.9 92 92 Calm 30.45 1031 10 16.09344 0 0
6:55 am 06:55 Clear 21 -6.1 19 -7.3 91 91 Calm 30.45 1031 10 16.09344 0 0
7:15 am 07:15 Clear 21 -6 19 -7.1 92 92 NNE 3 6 30.45 1031 10 16.09344 0 0
7:35 am 07:35 Clear 22 -5.6 20 -6.7 92 92 NE 3 6 30.42 1030 10 16.09344 0 0
7:55 am 07:55 Clear 21 -6 19 -7.1 92 92 Calm 30.45 1031 10 16.09344 0 0
8:15 am 08:15 Sunny 22 -5.4 20 -6.5 92 92 Calm 30.42 1030 10 16.09344 0 0
8:35 am 08:35 Sunny 22 -5.5 20 -6.6 92 92 SSW 5 7 30.45 1031 10 16.09344 0 0
8:55 am 08:55 Sunny 23 -5.2 21 -6.3 92 92 Calm 30.45 1031 10 16.09344 0 0
9:15 am 09:15 Sunny 24 -4.7 21 -6 91 91 Calm 30.45 1031 10 16.09344 0 0
9:35 am 09:35 Sunny 25 -4.1 23 -5.2 92 92 Calm 30.48 1032 10 16.09344 0 0
9:55 am 09:55 Sunny 26 -3.3 24 -4.5 92 92 Calm 30.48 1032 10 16.09344 0 0
10:15 am 10:15 Sunny 28 -2 25 -3.9 87 87 Calm 30.45 1031 10 16.09344 0 0
10:35 am 10:35 Sunny 30 -1.2 26 -3.6 84 84 Calm 30.45 1031 10 16.09344 0 0
10:55 am 10:55 Sunny 33 0.5 27 -2.8 79 79 SSE 3 6 30.45 1031 10 16.09344 0 0
11:15 am 11:15 Sunny 34 1 27 -2.9 75 75 S 7 11 30.39 1029 10 16.09344 0 0
11:35 am 11:35 Sunny 35 1.9 28 -2.5 73 73 S 5 7 30.39 1029 10 16.09344 0 0
11:55 am 11:55 Sunny 36 2.3 28 -2.1 73 73 SSE 5 7 30.39 1029 10 16.09344 0 0
12:15 pm 12:15 Sunny 37 3 28 -2.2 69 69 SSE 5 7 30.39 1029 10 16.09344 0 0
12:35 pm 12:35 Sunny 38 3.1 28 -2.2 69 69 SSE 6 9 30.33 1027 10 16.09344 0 0
12:55 pm 12:55 Sunny 38 3.3 29 -1.8 70 70 SSE 7 11 30.33 1027 10 16.09344 0 0
1:15 pm 13:15 Sunny 39 4 29 -1.6 67 67 SSE 7 11 30.33 1027 10 16.09344 0 0
1:35 pm 13:35 Sunny 40 4.2 30 -1.1 69 69 SSE 7 11 30.33 1027 10 16.09344 0 0
1:55 pm 13:55 Sunny 40 4.5 30 -0.9 68 68 SSE 7 11 30.33 1027 10 16.09344 0 0
2:15 pm 14:15 Sunny 40 4.7 31 -0.5 69 69 SE 7 11 30.33 1027 10 16.09344 0 0
2:35 pm 14:35 Sunny 41 5 31 -0.6 67 67 SSE 9 15 30.3 1026 10 16.09344 0 0
2:55 pm 14:55 Sunny 42 5.4 31 -0.3 67 67 SSE 10 17 30.3 1026 10 16.09344 0 0
3:15 pm 15:15 Sunny 42 5.7 32 -0.2 66 66 SSE 12 19 30.27 1025 10 16.09344 0 0
3:35 pm 15:35 Sunny 43 6.2 33 0.3 66 66 S 9 15 30.24 1024 10 16.09344 0 0
3:55 pm 15:55 Sunny 44 6.6 33 0.3 64 64 SSE 12 19 30.24 1024 10 16.09344 0 0
4:15 pm 16:15 Sunny 44 6.6 32 0.1 64 64 SSE 10 17 30.24 1024 10 16.09344 0 0
4:35 pm 16:35 Sunny 45 7 33 0.4 63 63 SSE 12 19 30.24 1024 10 16.09344 0 0
4:55 pm 16:55 Partly Cloudy 44 6.8 33 0.8 66 66 SSE 12 19 30.24 1024 10 16.09344 0 0
5:15 pm 17:15 Mostly Cloudy 44 6.5 32 0.2 64 64 SE 9 15 30.24 1024 10 16.09344 0 0
5:35 pm 17:35 Cloudy 43 6.3 33 0.3 66 66 SE 10 17 30.21 1023 10 16.09344 0 0
5:55 pm 17:55 Cloudy 43 6 33 0.4 68 68 SE 9 15 30.21 1023 10 16.09344 0 0
6:15 pm 18:15 Cloudy 42 5.7 33 0.3 69 69 SE 10 17 30.21 1023 10 16.09344 0 0
6:35 pm 18:35 Cloudy 42 5.6 32 0.1 68 68 SE 10 17 30.21 1023 10 16.09344 0 0
6:55 pm 18:55 Cloudy 42 5.4 32 0.2 69 69 SE 10 17 30.21 1023 10 16.09344 0 0
7:15 pm 19:15 Cloudy 41 5.1 33 0.3 71 71 SE 12 19 30.24 1024 10 16.09344 0 0
7:35 pm 19:35 Cloudy 41 4.8 32 0 71 71 SE 10 17 30.24 1024 10 16.09344 0 0
7:55 pm 19:55 Cloudy 40 4.5 32 0.1 73 73 SSE 14 22 30.24 1024 10 16.09344 0 0
8:15 pm 20:15 Cloudy 39 4 32 0.2 77 77 SSE 10 17 30.27 1025 10 16.09344 0 0
8:35 pm 20:35 Cloudy 39 3.9 33 0.3 78 78 SSE 8 13 30.27 1025 10 16.09344 0 0
8:55 pm 20:55 Cloudy 39 4 33 0.5 78 78 SSE 7 11 30.27 1025 10 16.09344 0 0
9:15 pm 21:15 Cloudy 39 3.9 33 0.5 79 79 SSE 9 15 30.27 1025 10 16.09344 0 0
9:35 pm 21:35 Cloudy 39 4.1 33 0.7 79 79 SSE 10 17 30.24 1024 10 16.09344 0 0
9:55 pm 21:55 Cloudy 40 4.3 33 0.6 77 77 SE 10 17 30.24 1024 10 16.09344 0 0
10:15 pm 22:15 Cloudy 40 4.4 33 0.4 76 76 SE 10 17 30.24 1024 10 16.09344 0 0
10:35 pm 22:35 Cloudy 39 4 33 0.4 78 78 SSE 9 15 30.24 1024 10 16.09344 0 0
10:55 pm 22:55 Cloudy 39 3.7 33 0.5 80 80 SSE 9 15 30.24 1024 10 16.09344 0 0
11:15 pm 23:15 Cloudy 39 4 33 0.5 78 78 SSE 9 15 30.24 1024 10 16.09344 0 0
11:35 pm 23:35 Cloudy 39 4.1 33 0.5 78 78 SE 8 13 30.21 1023 10 16.09344 0 0
11:55 pm 23:55 Cloudy 39 4.1 33 0.6 78 78 SE 8 13 30.21 1023 10 16.09344 0 0

Powered by AerisWeather